Pacific - Georgia Basin: Past 24 Hour Conditions

 

Entrance Island

06:00 AM PDT 23 April 2014
This table is a summary of hourly weather conditions for the past 24 hours.
Date / Time
(PDT)
Wind(knots) Conditions Visibility(km) Pressure(kPa) Air tempC) Relative humidity(%) Dew pointC)
23 April 2014
6:00 SSE 11 N/A N/A 101.1 7 83 4
5:00 SSE 10 N/A N/A 101.1 7 83 5
4:00 SE 6 N/A N/A 101.0 7 85 5
3:00 S 8 N/A N/A 101.0 7 84 5
2:00 SSE 6 N/A N/A 101.0 8 84 6
1:00 SSE 5 N/A N/A 101.0 8 84 5
0:00 SSE 6 N/A N/A 101.0 7 83 5
22 April 2014
23:00 SSE 6 N/A N/A 101.0 8 79 4
22:00 SSE 10 N/A N/A 101.0 8 81 5
21:00 SE 15 N/A N/A 101.0 9 73 4
20:00 S 16 N/A N/A 100.9 10 70 4
19:00 SSE 8 N/A N/A 100.9 11 68 5
18:00 SE 5 N/A N/A 101.0 10 60 3
17:00 SSE 16 N/A N/A 101.0 10 57 2
16:00 ESE 9 N/A N/A 101.0 11 63 4
15:00 ESE 10 N/A N/A 101.0 10 63 4
14:00 E 7 N/A N/A 101.0 11 60 4
13:00 ENE 5 N/A N/A 101.0 10 65 4
12:00 N 5 N/A N/A 101.0 9 67 3
11:00 NNW 8 N/A N/A 100.9 9 67 3
10:00 NW 8 N/A N/A 100.9 9 71 4
9:00 WNW 6 N/A N/A 100.9 8 68 3
8:00 W 8 N/A N/A 101.0 8 73 3
7:00 WNW 14 N/A N/A 101.0 8 75 4
6:00 WNW 12 N/A N/A 101.0 8 78 5
 
Map of Pacific - Georgia Basin marine weather areas Tsawwassen Ferry Terminal Sentry Shoal - 46131 Halibut Bank - 46146 La Perouse Bank - 46206 Discovery Island Esquimalt Harbour Kelp Reefs Malahat Race Rocks Lightstation Saturna Island Sheringham Point University of Victoria Victoria Gonzales Victoria Int'l Airport Ballenas Islands Campbell River Airport Comox Airport Entrance Island Fanny Island Nanaimo Airport Sisters Islets Estevan Point Tofino Airport Grief Point Powell River Airport Sechelt Point Atkinson Sand Heads Lightstation Vancouver Harbour Vancouver Int'l Airport West Vancouver Port Alberni Howe Sound - Pam Rocks Squamish Airport